This demonstration page uses our WeatherBlox Daily Observations layout. Learn more.

Left ArrowRight Arrow

34.02893, -84.19858

Hourly Observations for July 5, 2022

Temp ( °F °C ) Dew Point ( °F °C ) Humidity (%) Winds ( mph kmh ) Pressure ( in mb ) Visibility ( mi km ) Precip ( " mm )
12:53 am 00:53 Cloudy 74 23.3 72 22.2 94 94 Calm 30.10 1019 7 11 0.00 0.00
1:53 am 01:53 Clear 74 23.3 72 22.2 94 94 NW 7 11 30.06 1018 7 11 0.00 0.00
2:53 am 02:53 Clear with Mist and Fog 74 23.3 72 22.2 94 94 Calm 30.04 1017 6 10 0.00 0.00
3:53 am 03:53 Clear 74 23.3 72 22.2 94 94 WNW 3 6 30.04 1017 7 11 0.00 0.00
4:53 am 04:53 Clear with Mist and Fog 73 22.8 72 22.2 96 96 Calm 30.04 1017 4 6 0.00 0.00
5:53 am 05:53 Clear with Mist and Fog 73 22.8 72 22.2 96 96 Calm 30.05 1018 4 6 0.00 0.00
6:53 am 06:53 Sunny with Mist and Fog 73 22.8 72 22.2 96 96 Calm 30.06 1018 4 6 0.00 0.00
7:53 am 07:53 Sunny with Mist and Fog 76 24.4 74 23.3 94 94 N 6 9 30.07 1018 6 10 0.00 0.00
8:06 am 08:06 Partly Cloudy with Mist and Fog 77 25 74 23.3 90 90 NNW 5 7 30.10 1019 6 10 0.00 0.00
8:53 am 08:53 Partly Cloudy with Mist and Fog 78 25.6 74 23.3 87 87 Calm 30.09 1019 6 10 0.00 0.00
9:06 am 09:06 Mostly Cloudy 79 26.1 75 23.9 88 88 Calm 30.10 1019 7 11 0.00 0.00
9:53 am 09:53 Mostly Cloudy 81 27.2 74 23.3 79 79 Calm 30.10 1019 9 14 0.00 0.00
10:00 am 10:00 Mostly Cloudy 81 27.2 74 23.3 79 79 Calm 30.10 1019 9 14 0.00 0.00
10:07 am 10:07 Mostly Cloudy 82 27.8 74 23.3 77 77 Calm 30.10 1019 9 14 0.00 0.00
10:53 am 10:53 Mostly Cloudy 83 28.3 73 22.8 72 72 Calm 30.08 1019 10 16 0.00 0.00
10:58 am 10:58 Mostly Cloudy 84 28.9 73 22.8 70 70 VRB 3 6 30.07 1018 10 16 0.00 0.00
11:53 am 11:53 Partly Cloudy 86 30 73 22.8 65 65 N 3 6 30.07 1018 10 16 0.00 0.00
12:53 pm 12:53 Mostly Sunny 89 31.7 74 23.3 61 61 Calm 30.05 1018 10 16 0.00 0.00
1:53 pm 13:53 Mostly Cloudy 89 31.7 72 22.2 57 57 VRB 6 9 30.02 1017 10 16 0.00 0.00
2:53 pm 14:53 Partly Cloudy 91 32.8 73 22.8 56 56 VRB 5 7 29.99 1016 10 16 0.00 0.00
3:53 pm 15:53 Mostly Cloudy 92 33.3 72 22.2 52 52 VRB 5 7 29.97 1015 10 16 0.00 0.00
4:53 pm 16:53 Cloudy 91 32.8 71 21.7 52 52 Calm 29.96 1014 10 16 0.00 0.00
5:53 pm 17:53 Mostly Sunny 90 32.2 71 21.7 54 54 S 3 6 29.95 1014 10 16 0.00 0.00
6:53 pm 18:53 Sunny 91 32.8 71 21.7 52 52 SW 3 6 29.95 1014 10 16 0.00 0.00
7:53 pm 19:53 Sunny 86 30 71 21.7 61 61 WSW 8 13 29.96 1015 10 16 0.00 0.00
8:53 pm 20:53 Mostly Clear 84 28.9 73 22.8 70 70 W 7 11 29.97 1015 10 16 0.00 0.00
9:53 pm 21:53 Clear 82 27.8 73 22.8 74 74 Calm 29.97 1015 10 16 0.00 0.00
10:53 pm 22:53 Mostly Clear 80 26.7 73 22.8 79 79 Calm 30.00 1016 10 16 0.00 0.00
11:53 pm 23:53 Clear 79 26.1 73 22.8 82 82 ESE 3 6 29.98 1015 10 16 0.00 0.00

Powered by AerisWeather